TITAN 3C TRANSTAGE DEB, 27864

Orbit data source: Space-Track

TITAN 3C TRANSTAGE DEB, 27864 is space debris in HEO originally from a launch on Tue, 21 Dec 1965 UTC launched from the Air Force Eastern Test Range (AFETR). Debris objects in space refer to the collection of defunct objects orbiting the Earth. Examples of debris include non-operational satellites, rocket bodies, and fragments generated from explosions, collisions, or faulty payload assembly.

Loading next visibility...
Identifier
27864, 1965-108BK
Orbit
HEO
Country
Flag of USUS
Related business
Manufacturer
Unknown
Mission
Spacecraft
Bus & Motor
Unknown
Mass
Unknown
Launch date (UTC)
1965-12-21 (60 years ago)
Launch vehicle
Unknown
Launch site
Air Force Eastern Test Range (AFETR)
Object type
Payload
Rocket body
Debris
Shape & HBR
Unknown shape, 0.2 m
Radar Cross Section
Small (<0.1 m²)

Expand to show TLE details & history
Last TLE update: 4 days ago

TLE from 4 days ago
0 TITAN 3C TRANSTAGE DEB
1 27864U 65108BK  26129.41941319 -.00000040  00000-0  31977-3 0  9994
2 27864  26.6261 197.2488 6712444 220.0876 122.0591  2.66394711133662
Epoch: 2026-05-09T10:03Z
TLE epoch observation values (Epoch: 2026-05-09T10:03:57.299Z)
Latitude
10.45361°
Longitude
-159.37783°
Altitude
27,610.494 km
Speed
2.307 km/s
True Right ascension
14h 35m 23s
True Declination
10° 26' 27"
Sunlit
Object was in daylight at epoch
Visualization orbit readout
Latitude
Unknown
Longitude
Unknown
Altitude
Unknown
Speed
Unknown
Apparent Right ascension
Unknown
Apparent Declination
Unknown
Sunlit
N/A
Visualization observer readout
Local Sidereal Time
23:50:13
Azimuth
Unknown
Elevation
Unknown
Doppler factor
Unknown
Orbital elements
Apogee altitude
30,363.592 km
Perigee altitude
849.441 km
Semi-major axis
21,984.654 km
Eccentricity
0.67124
Inclination
26.6261°
RAAN
197.2488°
Arg. of periapsis
220.0876°
True anomaly
163.80581°
Mean anomaly
122.0591°
Eccentric anomaly
144.43056°
Mean motion
0.66583 °/min
Orbital period
540.68 mins
BSTAR
0.00031977
Loading maneuver chart data...
Computing Atmospheric mass density...

Documentation

Showing up to 5 results
|